Погода в Александровке

Россия / Тульская область     54°27′18″N   37°26′29″E
темп.,
°C
ветер,
м/с
пор.,
м/с
влажн.,
%
обл.,
%
осадки,
мм/ч
давл.,
гПа
погр.,
м
29 ноября, пн
пн2900:000ююв3691100 0.0 1010132
03:00+2юв3997100 0.0 1009251
06:00+3юв41094100 0.0 1006228
09:00+3юв4896100 0.1 1005194
12:00+4вюв51197100 0.2 1002285
15:00+3юв51198100 0.7 999373
18:00+4юв51198100 0.0 996306
21:00+5вюв61498100 0.1 990425
30 ноября, вт
вт3000:00+7вюв81696100 3.1 982550
03:00+8ююв71596100 7.4 975648
06:00+8юз81496100 1.6 972733
09:00+4юз121995100 3.4 9771059
12:00+2юз122088100 0.1 9801503
15:00+1юз121976100 0.3 9811379
18:00−1юз101889100 0.3 9831319
21:00−1зюз121984100 0.7 9851542
1 декабря, ср
ср100:00−2зюз101478100 0.2 9881176
03:00−2зюз9147575 0.3 989939
06:00−2зюз71275100 0.0 9901052
09:00−2зюз61181100 0.1 991914
12:00−1зюз71176100 0.1 9921150
15:00−2з61070100 0.2 9921169
18:00−3з71173100 0.0 9941047
21:00−4з61075100 0.1 9961097
2 декабря, чт
чт200:00−5з6117663 0.0 998739
03:00−6з598134 0.0 1000504
06:00−6зюз4882100 0.0 1002419
09:00−5ююз497987 0.0 1002331
12:00−3ю61267100 0.0 1002538
15:00−3ю71594100 0.9 1000661
18:00−1ююз71697100 1.4 999626
21:000юз81597100 2.4 999648
3 декабря, пт
пт300:00+1юз61398100 0.1 1000519
03:00+1юз61397100 0.1 1001625
06:00+1ююз61395100 0.0 1002445
09:00+2юз61295100 0.0 1003471
12:00+1ю51098100 0.4 1003550
15:00+1ю61398100 2.4 1001631
18:00+3ююз51298100 2.1 1000757
21:00+2зюз25100100 4.2 998260